Content
SEND FEEDBACK

Daily
Averages
Monthly
Summary
Canada

YELLOWKNIFE, NORTHWEST TERRITORIES


Home > North America > Canada > Northwest Territories
Elevation: 676 feet     Latitude: 62 28N     Longitude: 114 27W

WEATHER
 
SELECT A DAY
Number of Records: 190,601;   Date Range: 1/1/95 - 7/23/14
 
SHARE

PRINT THIS DATA

[ ← Previous Day ]
WEATHER ALMANAC - JANUARY 12, 2014
[ Next Day → ]
[ °C ]   °F
Weather ElementAverageHighLow
Temperature-20.7 °F-11 °F (11:00 pm)-31 °F (8:00 am)
Dewpoint-26.2 °F-14.8 °F (11:21 pm)-36.4 °F (8:00 am)
Humidity73.9 %84 % (4:00 pm)58 % (11:00 am)
Barometer29.52 in29.65 in (4:00 am)29.38 in (10:00 pm)
Wind Speed7.3 mph10.4 mph (1:00 pm)
Weather ElementAverage
Visibility12 mi
Wind DirectionENE (83 °)

Weather ElementTotal
Precipitation---
Heating Degree Days86 (Base 65)
Averaged from 30 records on January 12, 2014
WEATHER CONDITIONS BREAKOUT
WIND DIRECTION BREAKOUT
WEATHER BY HOUR - JANUARY 12, 2014
[ °C ]   °F
Local TimeTemperatureDewpointHumidityBarometerVisibilityWind DirectionWind SpeedGust SpeedPrecipitationEventsConditions
1:00 AM-25.6 °F-31.0 °F76 %29.62 in15.0 miNE (40°)8.1 mphMostly Cloudy
2:00 AM-25.6 °F-32.8 °F69 %29.63 in15.0 miNE (40°)8.1 mphMostly Cloudy
3:00 AM-27.4 °F-32.8 °F75 %29.64 in15.0 miNE (50°)9.2 mphScattered Clouds
4:00 AM-27.4 °F-32.8 °F75 %29.65 in15.0 miENE (60°)6.9 mphScattered Clouds
5:00 AM-29.0 °F-35.0 °F59 %29.65 in15.0 miNE (50°)5.8 mphScattered Clouds
5:00 AM-29.2 °F-34.6 °F75 %29.65 in15.0 miNE (50°)3.5 mphPartly Cloudy
6:00 AM-29.2 °F-34.6 °F75 %29.65 in15.0 miENE (60°)5.8 mphPartly Cloudy
7:00 AM-29.2 °F-34.6 °F75 %29.63 in15.0 miENE (60°)4.6 mphPartly Cloudy
8:00 AM-31.0 °F-36.4 °F75 %29.62 in15.0 miENE (60°)5.8 mphPartly Cloudy
9:00 AM-31.0 °F-36.4 °F75 %29.63 in15.0 miEast (80°)5.8 mphPartly Cloudy
10:00 AM-29.2 °F-34.6 °F75 %29.61 in15.0 miEast (90°)8.1 mphScattered Clouds
11:00 AM-27.0 °F-33.0 °F58 %29.60 in15.0 miEast (90°)6.9 mphClear
11:00 AM-27.4 °F-32.8 °F75 %29.60 in15.0 miEast (90°)6.9 mphMostly Cloudy
12:00 PM-23.8 °F-31.0 °F69 %29.57 in15.0 miESE (110°)3.5 mphMostly Cloudy
1:00 PM-22.0 °F-29.2 °F69 %29.54 in15.0 miEast (100°)10.4 mphMostly Cloudy
2:00 PM-20.2 °F-27.4 °F69 %29.51 in15.0 miEast (90°)5.8 mphMostly Cloudy
3:00 PM-18.4 °F-23.8 °F76 %29.49 in15.0 miEast (100°)8.1 mphMostly Cloudy
4:00 PM-18.4 °F-22.0 °F84 %29.47 in15.0 miEast (100°)8.1 mphOvercast
4:31 PM-16.6 °F-22.0 °F76 %29.47 in12.0 miEast (100°)8.1 mphSnowLight Snow
5:00 PM-16.0 °F-21.0 °F69 %29.46 in10.0 miEast (100°)10.4 mphSnowLight Snow
5:00 PM-14.8 °F-20.2 °F77 %29.46 in10.0 miEast (100°)10.4 mphSnowLight Snow
6:00 PM-13.0 °F-18.4 °F77 %29.44 in10.0 miESE (120°)10.4 mphSnowLight Snow
7:00 PM-11.2 °F-16.6 °F77 %29.42 in12.0 miEast (100°)6.9 mphSnowLight Snow
8:00 PM-11.2 °F-16.6 °F77 %29.40 in12.0 miSE (130°)9.2 mphSnowLight Snow
9:00 PM-11.2 °F-16.6 °F77 %29.39 in15.0 miEast (90°)6.9 mphSnowLight Snow
9:49 PM-11.2 °F-16.6 °F77 %29.39 in2.5 miEast (90°)8.1 mphSnowLight Snow
10:00 PM-11.2 °F-16.6 °F77 %29.38 in1.5 miEast (80°)8.1 mphSnowLight Snow
11:00 PM-11.0 °F-16.0 °F67 %29.39 in2.0 miEast (90°)6.9 mphSnowLight Snow
11:00 PM-11.2 °F-16.6 °F77 %29.39 in1.8 miEast (80°)5.8 mphSnowLight Snow
11:21 PM-11.2 °F-14.8 °F84 %29.39 in1.0 miEast (90°)5.8 mphSnowLight Snow
Hourly data recorded from CYZF, located miles away from Yellowknife, Northwest Territories







STORIES FROM OUR PARTNERS